Home   Weather   Vadsø   Past weeks
Flag for Norway

Past Weather in Vadsø, Norway — Yesterday and Last 2 Weeks

Now
30 °F

Light snow. Partly cloudy.


Feels Like: 27 °F
Forecast: 34 / 27 °F
Wind: 3 mph from North

Location: Vadso

Current Time: Oct 16, 2019 at 2:44:31 am

Latest Report: Oct 16, 2019 at 12:20 am


Visibility: N/A

Pressure: 30.07 "Hg

Humidity: 100%

Dew Point: 30 °F

Location of VadsøLocation

Past Weather in Vadsø — Graph

°F

Vadsø Temperature Yesterday

Maximum temperature yesterday: 36 °F (at 11:50 am)
Minimum temperature yesterday: 27 °F (at 5:50 am)
Average temperature yesterday: 32 °F

High & Low Weather Summary for the Past Weeks

 TemperatureHumidityPressure
High43 °F (Oct 6, 1:20 pm)100% (Oct 7, 4:50 pm)30.15 "Hg (Oct 7, 4:50 pm)
Low27 °F (Oct 15, 5:50 am)56% (Oct 14, 1:50 pm)29.36 "Hg (Oct 10, 5:20 am)
Average36 °F85%29.82 "Hg
* Reported Oct 1 12:20 am — Oct 16 12:20 am, Vadsø. Weather by CustomWeather, © 2019

Note: Actual official high and low records may vary slightly from our data, if they occured in-between our weather recording intervals... More about our weather records

Advertising

Vadsø Weather History for the Previous 24 Hours

Scroll right to see more
 ConditionsComfort  
Time TempWeatherWind HumidityBarometerVisibility
12:20 am
Wed, Oct 16
30 °FLight snow. Partly cloudy.3 mph100%30.07 "HgN/A
11:50 pm
Tue, Oct 15
30 °FPartly cloudy.5 mph100%30.07 "HgN/A
11:20 pm32 °FLight snow. Partly cloudy.5 mph100%30.07 "HgN/A
10:50 pm32 °FChilly.N/A100%30.07 "HgN/A
10:20 pm32 °FLight snow. Partly cloudy.5 mph93%30.07 "HgN/A
9:20 pm32 °FLight snow. Partly cloudy.3 mph93%30.07 "HgN/A
8:50 pm32 °FLight snow. Partly cloudy.3 mph93%30.07 "HgN/A
8:20 pm32 °FLight snow. Partly cloudy.5 mph93%30.07 "HgN/A
7:50 pm32 °FLight snow. Partly cloudy.3 mph93%30.07 "HgN/A
7:20 pm32 °FPartly cloudy.6 mph93%30.07 "HgN/A
6:50 pm34 °FLight snow. Partly cloudy.6 mph87%30.07 "HgN/A
6:20 pm32 °FPartly cloudy.6 mph93%30.07 "HgN/A
5:50 pm32 °FPartly cloudy.5 mph87%30.07 "HgN/A
5:20 pm34 °FScattered showers. Partly cloudy.6 mph87%30.07 "HgN/A
4:50 pm34 °FScattered showers. Partly cloudy.6 mph87%30.07 "HgN/A
4:20 pm34 °FPartly cloudy.5 mph87%30.07 "HgN/A
3:50 pm34 °FPartly cloudy.5 mph87%30.07 "HgN/A
2:50 pm36 °FPassing clouds.5 mph81%30.04 "HgN/A
2:20 pm36 °FPassing clouds.5 mph81%30.04 "HgN/A
1:50 pm36 °FScattered clouds.5 mph81%30.04 "HgN/A
12:50 pm36 °FScattered clouds.8 mph81%30.04 "HgN/A
11:50 am36 °FScattered clouds.8 mph81%30.04 "HgN/A
10:50 am32 °FScattered clouds.5 mph87%30.01 "HgN/A
8:50 am32 °FScattered clouds.5 mph87%30.01 "HgN/A
8:20 am30 °FSunny.5 mph93%29.98 "Hg10 mi
7:50 am28 °FSunny.5 mph93%29.98 "Hg10 mi
6:50 am32 °FSunny.5 mph87%29.95 "Hg10 mi
5:50 am27 °FSunny.5 mph93%29.95 "Hg10 mi
4:50 am28 °FClear.2 mph93%29.95 "Hg10 mi
4:20 am28 °FClear.5 mph86%29.95 "Hg10 mi
Weather by CustomWeather, © 2019

See weather overview